Portada
METAR-TAF:

METAR-TAF

Aeroports :

Russellville Regional Airport

Russellville, Arkansas, Estats Units d'Amèrica

latitud: 35-15-32N, longitud: 093-05-36W, altitud: 123 m

Observació

L'informe es va fer fa 57 minuts, a les 20:53 UTC
Vent 6 kt amb direcció variable
Temperatura 29°C
Humitat 29%
Pressió 1018 hPa
Visibilitat: 16.1 km
Cel clar

METAR: KRUE 292053Z AUTO VRB06KT 10SM CLR 29/09 A3007 RMK AO2 SLP174 T02940094 57009

Hora: 16:50 (21:50 UTC)


TAF: manca

Observacions i pronòstics meteorològics de més de 4000 aeroports (METAR i TAF).

Les estacions disponibles són els punts grocs i vermells al mapa.

Posi el ratolí al punt desitjat per veure el nom de l'estació.

Feu clic per veure les observacions i els pronòstics meteorològics.

Per canviar el mapa: feu clic els botons verds amb una creu de color negre per apropar; al botó verd amb un guió per allunyar la imatge; o en les fletxes verdes per a mapes adjacents.


METAR-TAF: